Overview Statistics Trail Chart Weather Telemetry Raw packets
 

This is the latest recevied weather packets stored in our database for station/object K0APR. If no packets are shown the sender has not sent any weather packets the latest 10 day(s).

<< 65 66 67 68 69 70 71 >>
Time Temp. Humidity Pressure Rain* Wind** Luminosity Snow
1788218867 28.89° C 53% 1013.3 hPa 0 mm - 138 W/m² -
1788218564 28.89° C 50% 1013.3 hPa 0 mm - 153 W/m² -
1788218259 28.89° C 51% 1013.3 hPa 0 mm - 134 W/m² -
1788217956 28.89° C 52% 1013.3 hPa 0 mm - 150 W/m² -
1788217656 28.33° C 54% 1013.7 hPa 0 mm - 204 W/m² -
1788217351 28.33° C 52% 1013.7 hPa 0 mm - 181 W/m² -
1788217050 28.89° C 50% 1013.7 hPa 0 mm - 83 W/m² -
1788216746 28.89° C 52% 1013.7 hPa 0 mm - 175 W/m² -
1788216440 28.89° C 53% 1013.7 hPa 0 mm - 198 W/m² -
1788216136 28.89° C 53% 1013.3 hPa 0 mm - 204 W/m² -
1788215831 28.89° C 53% 1013.3 hPa 0 mm - 114 W/m² -
1788215528 28.33° C 53% 1013.7 hPa 0 mm - 135 W/m² -
1788215223 28.33° C 55% 1013.7 hPa 0 mm - 128 W/m² -
1788214919 28.33° C 52% 1013.3 hPa 0 mm - 109 W/m² -
1788214614 28.33° C 51% 1013.7 hPa 0 mm - 89 W/m² -
1788214309 28.89° C 51% 1013.7 hPa 0 mm - 93 W/m² -
1788214004 28.89° C 51% 1013.7 hPa 0 mm - 103 W/m² -
1788213699 28.33° C 52% 1013.7 hPa 0 mm - 129 W/m² -
1788213394 28.89° C 51% 1013.7 hPa 0 mm - 318 W/m² -
1788213090 28.89° C 52% 1013.7 hPa 0 mm - 382 W/m² -
1788212787 28.89° C 49% 1013.7 hPa 0 mm - 285 W/m² -
1788212483 28.33° C 47% 1013.7 hPa 0 mm - 409 W/m² -
1788212180 28.89° C 47% 1013.7 hPa 0 mm - 238 W/m² -
1788211875 27.78° C 49% 1013.3 hPa 0 mm - 350 W/m² -
1788211571 28.33° C 47% 1013.3 hPa 0 mm - 222 W/m² -

* Rain latest hour (hover to see other rain measurements)
** Current wind speed in m/s (hover to see current wind gust speed)